Vorticity
nan nan nan nan nan nan nan nan nan nan nan nan nan nan nan nan nan nan nan nan nan nan nan nan nan nan nan nan nan nan nan nan nan nan nan nan nan nan nan nan nan nan nan nan nan nan nan nan nan nan nan nan nan nan nan nan nan nan nan nan nan nan nan nan nan nan nan nan nan
nan 8 8 9 9 9 9 10 11 12 10 11 13 9 6 2 6 10 11 9 7 7 7 9 12 15 17 13 8 7 8 10 8 6 8 8 8 8 7 7 9 9 8 8 5 3 7 7 4 4 7 11 13 11 9 10 12 11 13 9 6 10 10 9 9 9 6 4 nan
nan 7 8 9 9 8 9 10 12 11 8 9 11 10 7 5 7 10 11 10 9 7 7 10 14 15 13 9 6 7 10 11 10 7 7 9 10 9 7 9 11 9 7 7 6 5 8 8 4 4 7 12 13 10 10 11 11 11 13 8 3 7 9 11 11 8 5 8 nan
nan 7 8 10 9 6 6 11 15 10 5 9 14 10 6 4 6 9 11 11 8 7 10 13 14 13 11 9 9 9 10 13 12 9 8 11 13 11 9 10 11 9 8 8 8 7 8 5 2 6 10 13 11 8 7 11 11 8 10 8 6 9 9 10 10 8 8 10 nan
nan 7 8 11 9 4 4 11 15 9 4 12 15 6 2 3 6 10 11 10 9 10 13 15 14 13 13 13 10 9 10 11 10 10 11 14 13 12 12 11 9 9 9 10 10 9 9 2 0 7 11 11 9 10 11 11 8 5 5 8 9 10 10 9 8 8 8 9 nan
nan 8 8 11 10 4 4 10 12 8 7 15 14 -0 -4 3 9 12 12 11 11 10 10 10 13 15 16 14 9 7 8 8 9 11 13 13 13 14 14 11 9 8 9 11 11 9 7 1 1 8 10 10 12 14 13 9 6 6 5 6 8 9 11 9 8 9 10 10 nan
nan 9 9 11 9 5 5 9 9 9 8 16 14 -2 -6 4 12 12 10 9 9 7 4 7 14 16 17 13 8 7 8 9 10 11 10 10 13 14 12 11 10 9 9 9 8 7 6 2 2 7 9 9 12 16 12 7 7 8 6 4 6 9 12 8 7 11 15 14 nan
nan 9 10 12 9 7 7 8 8 8 7 12 11 3 0 7 12 10 8 8 7 6 5 10 16 15 14 12 11 10 10 9 8 8 8 10 13 11 10 9 10 10 9 7 6 6 4 2 4 8 8 7 11 15 15 11 7 6 6 4 4 7 9 9 10 12 16 16 nan
nan 10 11 11 10 8 8 9 9 9 8 9 8 6 6 10 11 7 5 5 8 9 9 12 13 12 11 12 12 11 10 8 7 7 8 10 11 9 7 8 9 8 7 7 7 6 2 1 5 8 8 8 11 14 17 14 8 5 3 4 6 8 8 10 11 11 13 15 nan
nan 10 10 11 10 9 9 10 10 11 10 8 8 8 9 10 11 6 4 6 10 11 11 12 11 9 8 9 10 10 9 8 8 8 8 9 10 8 5 7 9 7 6 7 7 6 1 2 6 7 8 10 12 13 15 15 10 5 -1 3 11 11 8 9 11 11 10 13 nan
nan 9 9 10 11 10 10 10 10 11 10 9 11 10 10 10 10 7 6 9 12 12 11 12 11 8 5 5 8 9 9 8 9 10 9 9 9 9 7 8 9 7 7 6 6 5 3 5 8 9 7 8 11 12 14 13 11 6 -0 3 11 11 9 8 8 10 11 14 nan
nan 9 9 11 12 10 9 9 10 11 11 12 14 10 10 10 10 8 8 10 11 10 10 12 11 7 4 5 7 9 9 10 10 10 10 10 10 9 8 8 8 8 7 5 3 4 6 8 10 10 8 5 6 11 15 14 10 7 3 3 7 8 9 9 6 6 11 15 nan
nan 9 9 11 12 10 8 8 11 12 13 14 14 9 9 10 10 9 9 10 9 9 10 12 10 8 6 6 7 9 9 10 10 10 11 11 10 10 9 8 9 8 7 5 4 5 8 10 11 10 9 4 4 10 15 13 9 7 6 5 5 6 9 9 7 6 9 12 nan
nan 9 9 11 10 8 7 8 9 12 17 15 10 8 8 8 9 9 10 10 9 9 9 9 8 8 9 9 9 10 9 9 10 10 10 11 11 10 9 9 10 8 6 7 10 9 8 10 12 11 11 7 5 8 11 11 8 8 7 6 6 7 8 10 9 8 9 9 nan
nan 8 10 10 9 7 8 7 7 13 19 15 8 9 8 7 8 10 12 11 9 9 9 8 8 10 11 10 10 10 9 9 9 9 9 10 11 10 9 9 10 8 7 9 12 13 13 12 11 10 11 10 7 7 8 9 8 8 8 8 8 8 9 10 10 9 9 9 nan
nan 8 10 10 9 8 8 5 8 15 18 14 9 9 8 9 10 11 12 10 8 10 12 10 9 9 10 10 10 9 9 9 8 7 8 9 10 9 9 9 9 8 8 9 11 13 14 12 10 10 10 10 8 7 7 8 8 8 8 8 9 9 10 11 11 10 10 9 nan
nan 9 10 10 9 8 7 6 9 14 15 12 9 10 11 11 12 13 13 10 10 13 13 10 8 9 9 10 10 9 9 9 7 7 7 8 9 9 9 8 8 8 8 8 10 11 11 9 8 9 11 10 8 7 8 7 8 9 9 9 9 9 9 11 12 11 11 10 nan
nan 10 11 11 10 9 8 8 10 11 9 8 7 10 13 15 15 14 14 15 16 15 13 9 9 11 12 11 9 9 11 11 9 8 8 9 9 9 9 8 8 8 7 7 8 9 9 8 7 8 10 10 8 8 9 8 9 10 10 9 9 9 9 10 10 10 11 11 nan
nan 10 11 11 10 9 9 9 8 6 5 7 9 12 14 15 15 14 15 16 18 17 14 12 12 14 14 12 10 10 13 14 13 11 10 10 10 9 9 9 9 9 8 7 7 7 7 7 7 7 7 8 9 9 9 9 10 11 11 10 9 8 8 9 9 8 10 11 nan
nan 9 9 9 8 8 9 8 6 6 7 9 11 10 10 9 11 12 13 15 17 18 15 12 12 13 13 11 10 9 11 14 17 15 14 13 13 13 13 12 10 11 10 10 10 10 9 9 9 8 8 8 9 10 10 10 10 11 9 9 10 9 8 8 9 9 9 10 nan
nan 7 6 7 8 9 10 8 8 9 12 12 12 9 6 3 4 6 9 11 13 13 11 9 9 9 8 8 7 8 9 12 17 17 17 16 17 18 20 19 16 14 13 13 13 13 13 13 12 11 10 10 11 12 12 12 12 12 8 7 9 10 9 9 9 9 9 9 nan
nan 7 6 8 11 11 10 7 8 10 13 14 13 10 6 2 0 1 2 5 7 7 7 8 10 11 12 12 11 11 11 13 15 16 17 15 15 16 20 23 22 19 17 16 16 16 16 16 16 14 12 11 12 13 13 13 13 13 11 8 9 9 9 9 9 10 9 8 nan
nan 9 9 11 13 12 9 6 5 7 10 12 11 9 9 6 4 4 4 6 7 7 7 8 12 17 21 23 21 17 13 12 12 12 14 13 11 12 14 17 17 15 14 13 15 18 21 22 20 17 13 12 13 13 13 12 12 14 14 11 9 9 10 10 10 10 9 8 nan
nan 9 9 14 17 13 9 6 4 4 7 9 9 11 13 11 8 10 14 17 17 16 14 12 11 13 16 19 19 15 12 9 8 9 10 11 11 11 11 11 9 9 9 8 8 12 16 20 21 19 16 13 13 13 12 11 11 13 14 13 10 10 10 11 11 10 10 8 nan
nan 10 11 15 16 13 11 9 7 6 7 9 13 16 17 16 14 14 15 17 17 16 15 13 10 7 7 8 9 9 9 8 9 9 9 9 11 12 12 11 9 8 8 6 7 13 15 14 14 17 16 13 10 9 9 11 12 12 13 12 10 10 10 12 11 11 10 9 nan
nan 11 10 12 13 13 13 12 10 11 12 14 17 18 17 15 13 12 11 10 10 9 9 8 8 7 7 7 8 9 9 8 9 10 10 9 10 12 14 13 11 9 7 6 16 27 30 23 17 18 19 16 11 11 12 16 17 16 16 14 12 10 10 11 12 12 11 11 nan
nan 10 9 11 13 13 12 12 13 14 15 16 16 14 13 11 10 9 7 7 7 6 5 5 6 6 5 5 6 9 11 10 9 9 10 10 10 11 13 13 12 9 6 12 28 36 37 32 29 28 28 24 21 20 22 24 25 25 25 22 19 18 18 19 19 17 15 14 nan
nan 11 11 13 14 13 12 13 14 14 13 14 13 12 11 11 11 9 7 7 6 5 3 3 4 6 6 5 5 7 10 12 10 8 8 9 9 10 12 13 10 7 7 19 30 30 28 28 31 33 33 28 22 19 19 20 20 20 21 22 23 23 23 23 21 20 20 18 nan
nan 15 15 14 12 12 12 12 12 11 11 10 11 10 10 9 9 9 9 9 9 8 8 8 9 10 11 10 7 6 7 10 11 10 9 9 9 10 10 12 8 5 7 19 25 21 19 20 23 26 28 27 21 15 11 11 12 12 12 13 15 17 18 17 17 16 17 17 nan
nan 16 14 12 10 10 11 11 10 10 9 8 9 9 9 8 8 9 9 9 10 12 14 16 16 16 15 12 10 8 8 9 10 10 9 9 9 9 10 11 10 7 7 16 21 18 16 15 16 18 21 24 21 16 13 12 13 12 11 10 11 13 14 14 14 14 15 16 nan
nan 13 11 9 9 9 10 10 10 10 11 11 9 9 9 8 8 8 8 8 10 12 14 16 16 15 13 12 12 11 11 11 11 10 9 8 9 9 9 9 9 8 7 14 19 16 14 14 14 16 18 21 20 17 14 13 13 12 12 12 13 14 15 12 10 13 16 18 nan
nan 11 10 9 8 9 9 9 9 9 10 10 9 9 8 8 8 8 9 8 9 10 11 11 10 10 10 11 11 11 11 11 11 11 11 9 9 8 7 6 6 7 7 12 17 15 13 13 13 14 16 19 18 16 15 13 10 10 10 10 11 14 17 17 11 11 14 18 nan
nan 10 9 8 7 7 8 8 8 8 8 8 8 8 8 7 8 9 9 9 8 8 9 8 8 8 8 9 9 9 8 8 9 11 11 11 10 10 9 7 3 4 7 11 14 12 12 11 11 11 12 14 14 12 12 13 11 9 8 8 8 10 12 16 15 13 14 17 nan
nan 9 8 7 7 7 8 8 8 8 8 8 9 9 9 8 9 9 10 10 10 9 8 8 8 9 9 9 9 9 9 8 8 9 10 10 10 10 11 11 6 3 8 12 12 11 10 9 8 8 8 9 10 9 10 13 13 12 11 10 9 9 10 11 12 13 13 15 nan
nan 8 8 8 8 8 8 9 9 9 8 8 8 8 9 9 9 10 10 11 11 10 10 9 9 10 10 10 9 9 10 11 10 9 9 9 9 9 10 11 9 6 10 14 12 11 9 8 7 7 7 6 7 6 6 7 9 10 11 10 9 9 11 11 11 11 12 13 nan
nan 9 8 9 9 9 10 9 9 9 8 8 8 8 8 9 9 9 9 10 10 10 10 10 10 10 10 10 9 9 9 10 10 10 10 9 9 8 8 8 7 5 9 14 14 12 11 9 8 7 8 8 8 7 6 4 4 4 6 7 7 7 8 9 10 11 13 14 nan
nan 9 9 9 9 9 10 10 9 9 8 8 8 8 8 8 8 9 9 9 8 8 9 9 10 10 10 10 10 10 11 10 10 10 10 10 9 8 8 7 6 4 5 12 15 14 13 13 12 10 10 9 10 9 7 6 5 3 3 4 5 6 8 6 5 8 12 16 nan
nan 11 11 10 10 10 10 10 10 9 8 8 8 8 8 7 7 8 10 10 9 8 8 9 9 9 9 10 9 10 11 12 12 11 10 11 11 10 9 7 6 6 5 9 14 15 15 15 15 15 14 12 9 8 7 7 8 7 5 3 4 5 9 9 6 5 6 12 nan
nan 12 12 11 10 10 10 10 9 9 8 8 8 9 9 9 10 10 11 11 10 9 8 9 9 9 8 8 8 8 9 11 11 11 11 11 11 12 12 8 7 7 6 9 13 14 14 14 15 16 16 12 9 8 8 8 8 8 8 6 5 4 7 11 9 6 2 2 nan
nan 12 12 10 10 9 9 9 9 9 8 8 9 8 8 10 11 11 11 10 10 9 8 7 8 9 9 8 8 7 8 9 10 11 11 11 10 11 12 10 8 8 6 8 12 14 14 14 14 14 14 11 9 9 9 8 8 8 9 9 7 5 5 8 10 8 4 -1 nan
nan nan nan nan nan nan nan nan nan nan nan nan nan nan nan nan nan nan nan nan nan nan nan nan nan nan nan nan nan nan nan nan nan nan nan nan nan nan nan nan nan nan nan nan nan nan nan nan nan nan nan nan nan nan nan nan nan nan nan nan nan nan nan nan nan nan nan nan nan
CAPE
5 nan nan nan 0 0 71 43 nan nan nan 143 16 185 185 913 961 1010 1010 947 860 925 925 909 814 799 799 751 714 714 718 658 502 140 140 260 388 305 305 228 138 158 158 120 93 93 80 67 45 45 27 0 nan nan nan 0 nan nan nan nan nan nan nan nan nan nan nan nan nan
nan nan nan nan nan nan 27 16 nan nan nan 100 55 357 357 941 899 896 896 876 824 884 884 940 728 870 870 714 678 678 745 679 541 316 316 383 394 310 310 248 188 149 149 114 99 99 84 59 46 46 28 3 1 nan nan nan 0 0 0 nan nan nan nan nan nan nan nan nan nan
nan nan nan nan nan nan 19 29 14 14 5 41 89 331 331 715 775 820 820 720 734 827 827 924 834 712 712 742 774 774 737 773 609 482 482 475 400 314 314 251 209 79 79 86 103 103 76 51 6 6 nan 7 1 nan nan 0 0 0 0 nan nan nan nan nan nan nan nan nan nan
nan nan nan nan nan nan 1 1 7 7 10 1 88 289 289 554 680 731 731 564 609 808 808 948 898 666 666 626 725 725 761 386 518 489 489 459 384 318 318 255 213 143 143 122 92 92 65 41 10 10 0 2 1 nan nan 0 0 0 0 nan nan nan nan nan nan nan nan nan nan
nan nan nan nan nan nan nan nan 3 3 nan 5 48 265 265 618 555 635 635 510 663 794 794 930 953 716 716 576 706 706 741 371 53 520 520 419 368 304 304 260 203 148 148 110 90 90 53 31 27 27 10 1 nan nan nan nan nan nan nan nan nan nan nan nan nan nan nan nan nan
nan nan nan nan nan nan nan nan nan nan nan 8 23 223 223 705 672 643 643 626 681 697 697 338 419 442 442 719 715 715 645 509 261 475 475 380 336 292 292 251 195 156 156 116 79 79 42 28 23 23 7 nan nan nan nan nan nan nan nan nan nan nan nan nan nan nan nan nan nan
nan nan nan nan nan nan nan nan nan nan nan 6 36 254 254 700 642 582 582 603 727 502 502 173 328 573 573 801 720 720 624 515 486 458 458 388 324 249 249 225 185 145 145 105 69 69 40 19 13 13 nan nan nan nan nan nan nan nan nan nan nan nan nan nan nan nan nan nan nan
nan nan nan nan nan nan nan nan nan nan nan 2 54 342 342 675 589 534 534 610 773 464 464 339 622 831 831 818 734 734 608 524 496 469 469 399 333 272 272 229 188 147 147 109 74 74 31 17 11 11 nan nan nan nan nan nan nan nan nan nan nan nan nan nan nan nan nan nan nan
nan nan nan nan nan nan nan nan nan nan nan nan 99 390 390 754 608 549 549 626 493 460 460 508 559 707 707 808 693 693 599 567 537 484 484 410 337 274 274 231 189 150 150 113 66 66 35 18 11 11 nan nan nan nan nan nan nan nan nan nan nan nan nan nan nan nan nan nan nan
nan nan nan nan nan nan nan nan nan nan nan 4 169 271 271 111 312 571 571 530 346 543 543 626 555 604 604 661 655 655 620 586 554 522 522 374 304 294 294 249 207 153 153 116 82 82 38 20 14 14 nan nan nan nan nan nan 0 nan nan nan nan nan nan nan nan nan nan nan nan
nan nan nan nan nan nan nan nan nan nan nan 49 259 289 289 41 264 445 445 387 518 662 662 651 574 563 563 529 525 525 609 634 568 533 533 422 256 330 330 268 210 171 171 118 83 83 51 33 14 14 nan nan nan nan nan nan nan nan nan nan nan nan nan nan nan nan nan nan nan
nan nan nan nan nan nan nan nan nan nan 0 121 310 371 371 375 447 252 252 326 506 585 585 668 687 611 611 544 412 412 368 682 581 544 544 479 392 358 358 294 234 192 192 133 97 97 52 22 23 23 1 nan nan nan nan nan nan nan nan nan nan nan nan nan nan nan nan nan nan
nan 0 0 2 0 0 nan nan nan nan 41 215 341 482 482 453 300 214 214 313 379 601 601 618 639 630 630 592 427 427 583 635 627 500 500 488 424 369 369 305 262 218 218 155 97 97 63 42 22 22 0 nan nan nan nan nan nan nan nan nan nan nan nan nan nan nan nan 0 nan
0 3 3 3 0 0 nan nan 11 11 123 321 572 568 568 488 235 236 236 372 415 582 582 508 421 617 617 552 466 466 628 650 608 566 566 470 433 379 379 335 290 226 226 162 115 115 75 40 20 20 3 nan nan nan nan nan 0 nan nan nan nan nan nan nan nan nan nan 0 nan
1 10 10 3 nan nan nan 1 60 60 233 397 639 586 586 549 170 227 227 493 422 533 533 587 409 260 260 431 451 451 522 628 586 546 546 406 420 390 390 344 297 233 233 169 122 122 77 52 18 18 2 nan nan nan nan nan 0 nan nan nan nan nan nan nan nan nan 0 nan nan
5 12 12 3 nan nan nan 2 124 124 345 560 685 686 686 649 260 293 293 562 459 513 513 566 521 436 436 410 431 431 424 546 565 526 526 490 454 400 400 333 268 241 241 176 129 129 81 38 28 28 0 nan nan nan nan nan nan nan nan nan nan nan nan nan 0 0 nan nan 0
7 28 28 8 1 1 4 13 144 144 396 707 801 831 831 789 643 292 292 467 589 576 576 597 585 542 542 124 292 292 382 580 543 535 535 499 462 408 408 342 295 211 211 164 118 118 83 42 1 1 nan nan 0 nan nan nan nan nan nan 0 nan nan nan nan nan nan nan nan nan
90 59 59 46 63 63 89 89 153 153 421 674 550 476 476 600 556 383 383 377 709 634 634 630 628 536 536 479 532 532 338 579 492 464 464 399 453 468 468 420 238 190 190 157 109 109 97 89 59 59 52 22 2 nan nan nan nan nan nan 1 0 nan nan nan nan nan nan nan nan
109 65 65 65 109 109 113 34 207 207 632 629 383 369 369 564 613 563 563 586 358 679 679 680 713 650 650 586 550 550 127 497 566 514 514 465 482 499 499 471 378 269 269 236 184 184 153 125 87 87 61 36 28 0 0 nan nan nan nan nan 0 nan nan nan nan nan nan nan nan
107 59 59 114 210 210 260 307 454 454 611 462 301 305 305 363 421 381 381 369 376 509 509 447 451 433 433 381 299 299 221 175 461 458 458 474 490 509 509 505 370 319 319 265 209 209 176 148 105 105 80 28 3 2 2 nan nan nan nan 0 nan nan nan nan nan nan nan nan nan
153 112 112 259 307 307 289 333 372 372 395 362 217 131 131 165 205 197 197 96 157 198 198 158 158 161 161 138 117 117 90 2 122 136 136 91 105 181 181 202 207 142 142 112 147 147 154 143 95 95 71 9 0 1 1 nan nan nan nan nan nan nan nan nan nan nan nan nan nan
226 255 255 379 332 332 261 252 238 238 281 236 127 75 75 86 121 81 81 50 38 57 57 47 68 117 117 177 134 134 1 nan 0 0 0 nan nan nan nan nan 229 261 261 168 120 120 193 139 69 69 32 5 nan nan nan nan nan nan nan nan nan nan nan nan nan nan nan nan nan
249 321 321 370 225 225 23 108 218 218 191 124 99 58 58 61 87 57 57 31 4 23 23 1 1 0 0 0 1 1 0 nan nan nan nan nan nan nan nan nan nan nan nan 0 0 0 0 149 117 117 22 1 nan nan nan nan nan nan nan nan nan nan nan nan nan nan nan nan nan
246 285 285 248 144 144 103 109 107 107 72 72 106 116 116 98 74 42 42 19 3 1 1 0 nan nan nan nan nan nan nan nan nan nan nan nan nan nan nan nan nan 0 0 nan nan nan nan 0 79 79 38 nan nan nan nan nan nan nan nan nan nan nan nan nan nan nan nan nan nan
194 135 135 151 129 129 102 90 73 73 68 69 56 39 39 10 2 0 0 nan nan nan nan nan nan nan nan nan nan nan nan nan nan nan nan nan nan nan nan nan 0 0 0 nan nan nan nan nan 0 0 nan nan nan nan nan nan nan nan nan nan nan nan nan nan nan nan nan nan nan
122 83 83 111 98 98 92 78 52 52 25 1 nan nan nan nan nan nan nan nan nan nan nan nan nan nan nan nan nan nan nan nan nan nan nan nan nan nan nan nan 0 0 0 nan nan nan nan nan nan nan nan 21 nan nan nan nan nan nan nan nan nan nan nan nan nan nan nan nan nan
54 52 52 83 70 70 56 13 1 1 0 0 nan nan nan nan nan nan nan nan nan nan nan nan nan nan nan nan nan nan nan nan nan nan nan nan nan nan nan nan 0 0 0 nan nan nan nan nan nan nan nan nan nan nan nan nan nan nan nan nan nan nan nan nan nan nan nan nan nan
35 49 49 36 5 5 1 0 0 0 nan nan nan nan nan nan nan nan nan nan nan nan nan nan nan nan nan nan nan nan nan nan nan nan nan nan nan nan nan nan nan nan nan nan nan nan nan nan nan nan nan nan nan nan nan nan nan nan nan nan nan nan nan nan nan nan nan nan nan
23 2 2 1 0 0 nan nan nan nan nan nan nan nan nan nan nan nan nan nan nan nan nan nan nan nan nan nan nan nan nan nan nan nan nan nan nan nan nan nan nan nan nan nan nan nan nan nan nan nan nan nan nan nan nan nan nan nan nan nan nan nan nan nan nan nan nan nan nan
1 0 0 nan nan nan nan nan nan nan nan nan nan nan nan nan nan nan nan nan nan nan nan nan nan nan nan nan nan nan nan nan nan nan nan nan nan nan nan nan nan nan nan nan nan nan nan nan nan nan nan nan nan nan nan nan nan nan nan nan nan nan nan nan nan nan nan nan nan
nan nan nan nan nan nan nan nan nan nan nan nan nan nan nan nan nan nan nan nan nan nan nan nan nan nan nan nan nan nan nan nan nan nan nan nan nan nan nan nan nan nan nan nan nan nan nan nan nan nan nan nan nan nan nan nan nan nan nan nan nan nan nan nan nan nan nan nan nan
nan nan nan nan nan nan nan nan nan nan nan nan nan nan nan nan nan 0 0 nan nan nan nan nan nan nan nan nan nan nan nan nan nan nan nan nan nan nan nan nan nan nan nan nan nan nan nan nan nan nan nan nan nan nan nan nan nan nan nan nan nan nan nan nan nan nan nan nan nan
nan nan nan nan nan nan 0 1 0 0 nan nan nan nan nan nan 0 0 0 nan nan nan nan nan nan nan nan nan nan nan nan nan nan nan nan nan nan nan nan nan nan nan nan nan nan nan nan nan nan nan nan nan nan nan nan nan nan nan nan nan nan nan nan nan nan nan nan nan nan
0 0 0 nan 0 0 1 0 0 0 nan nan 0 nan nan nan nan nan nan nan nan nan nan nan nan 0 0 nan nan nan nan nan nan nan nan nan nan nan nan nan nan nan nan nan nan nan nan nan nan nan nan nan nan nan nan nan nan nan nan nan nan nan nan nan nan nan nan nan nan
0 nan nan nan 0 0 0 0 nan nan nan nan 0 0 0 nan nan nan nan nan nan 0 0 nan nan nan nan nan nan nan nan nan nan nan nan nan nan nan nan nan nan nan nan nan nan nan nan nan nan nan nan nan nan nan nan nan nan nan nan nan nan nan nan nan nan nan nan nan nan
0 0 0 0 nan nan nan nan nan nan nan nan 0 0 0 nan 0 nan nan nan nan nan nan nan nan nan nan nan nan nan nan nan nan nan nan nan nan nan nan nan nan nan nan nan nan nan nan nan nan nan nan nan nan nan nan nan nan nan nan nan nan nan nan nan nan nan nan nan nan
nan nan nan nan nan nan nan nan nan nan nan 0 0 0 0 0 0 nan nan nan nan nan nan nan nan nan nan nan nan nan nan nan nan nan nan nan nan nan nan nan nan nan nan nan nan nan nan nan nan nan nan nan nan nan nan nan nan nan nan nan nan nan nan nan nan nan nan nan nan
nan nan nan nan nan nan nan nan nan nan nan 0 0 0 0 0 0 nan nan nan nan nan nan nan nan nan nan nan nan nan nan nan nan nan nan nan nan nan nan nan nan nan nan nan nan nan nan nan nan nan nan nan nan nan nan nan nan nan nan nan nan nan nan nan nan nan nan nan nan
nan nan nan nan nan nan nan nan nan nan 0 0 0 0 0 0 nan nan nan nan nan nan nan nan nan nan nan nan nan nan nan nan nan nan nan nan nan nan nan nan nan nan nan 0 0 0 nan nan nan nan nan nan nan nan nan nan nan nan nan nan nan nan nan nan nan nan nan nan 2
nan nan nan nan nan nan nan nan 0 0 0 0 nan nan nan 0 0 nan nan nan nan nan nan nan nan nan nan nan nan nan nan nan nan nan nan nan nan nan nan nan nan nan nan 0 0 0 0 nan nan nan nan nan nan nan nan nan nan nan nan nan nan nan nan nan nan nan nan nan 3
nan nan nan nan nan nan nan nan 0 0 nan nan nan 0 0 0 nan nan nan nan nan nan nan nan nan nan nan nan nan nan nan nan nan nan nan nan 0 0 0 nan nan nan nan nan 0 0 0 0 0 0 nan nan nan nan nan nan nan nan nan nan nan nan nan nan nan nan nan nan nan